Powrót do katalogu

STARLINK-36964

AktywnyŁącznośćVLEO
NORAD 68184·PAYLOAD·🇺🇸 United States

Wystrzelony Mar 14, 2026 z Vandenberg Space Force Base

Loading…

Następne Przeloty (najbliższe 24 godziny)

TLE

ŚwieżeSource: CelesTrak SupGP

Epoka: Sep 14, 2026, 23:30 UTC

1 68184C 26050T   26257.97965278  .00037211  00000+0  10995-2 0  2571
2 68184  53.1564 103.6214 0001285  83.5365 117.0055 15.34368128    17

Śledź STARLINK-36964 w czasie rzeczywistym z AllMySat

Download on the App Store